<?xml version="1.0" encoding="UTF-8" standalone="no" ?>
<gpx xmlns="http://www.topografix.com/GPX/1/1" xmlns:xsi="http://www.w3.org/2001/XMLSchema-instance" xsi:schemaLocation="http://www.topografix.com/GPX/1/1 http://www.topografix.com/GPX/1/1/gpx.xsd" version="1.1" creator="VisuGPX - https://www.visugpx.com">
  <metadata>
    <name>Roques-Hautes - VTT / Difficile</name>
    <desc><![CDATA[Le domaine de Roques-Hautes, labellisé Parc Départemental, étale ses 800 hectares de relief accidenté sur les communes d%u2019Aix-en-Provence, de Beaurecueil, du Tholonet, de Saint-Antonin-sur-Bayon, et de Saint-Marc Jaumegarde. ]]></desc>
  </metadata>
  <wpt lat="43.53146" lon="5.51378">
    <ele>260.6</ele>
    <name><![CDATA[Barrage Zola]]></name>
  </wpt>
  <wpt lat="43.52596" lon="5.54113">
    <ele>299.7</ele>
    <name><![CDATA[Carriere de Marbre]]></name>
  </wpt>
  <wpt lat="43.52854" lon="5.5701">
    <ele>458.4</ele>
    <name><![CDATA[Hameau du Trou]]></name>
  </wpt>
  <wpt lat="43.52233" lon="5.54671">
    <ele>251.2</ele>
    <name><![CDATA[Parking de l-Aurigon]]></name>
    <desc><![CDATA[Parking Principal]]></desc>
    <cmt><![CDATA[Parking Principal]]></cmt>
  </wpt>
  <wpt lat="43.52343" lon="5.56776">
    <ele>304.7</ele>
    <name><![CDATA[Parking du Bouquet]]></name>
  </wpt>
  <wpt lat="43.52398" lon="5.56524">
    <ele>305.5</ele>
    <name><![CDATA[Parking du Plan de l-Anchois]]></name>
  </wpt>
  <wpt lat="43.52176" lon="5.52761">
    <ele>224.9</ele>
    <name><![CDATA[Parking du Toscan]]></name>
  </wpt>
  <trk>
    <name><![CDATA[Roques hautes VTT 2 rouge]]></name>
    <trkseg>
      <trkpt lat="43.52418" lon="5.54734">
        <ele>255</ele>
        <time>2011-02-17T20:24:54Z</time>
      </trkpt>
      <trkpt lat="43.52399" lon="5.54722">
        <ele>253</ele>
        <time>2011-02-17T20:24:54Z</time>
      </trkpt>
      <trkpt lat="43.52378" lon="5.54728">
        <ele>254</ele>
        <time>2011-02-17T20:24:54Z</time>
      </trkpt>
      <trkpt lat="43.52425" lon="5.54743">
        <ele>256</ele>
        <time>2011-02-17T20:24:54Z</time>
      </trkpt>
      <trkpt lat="43.52494" lon="5.54689">
        <ele>256</ele>
        <time>2011-02-17T20:24:54Z</time>
      </trkpt>
      <trkpt lat="43.52543" lon="5.54621">
        <ele>260</ele>
        <time>2011-02-17T20:24:54Z</time>
      </trkpt>
      <trkpt lat="43.52586" lon="5.54516">
        <ele>268</ele>
        <time>2011-02-17T20:24:54Z</time>
      </trkpt>
      <trkpt lat="43.52564" lon="5.54303">
        <ele>287</ele>
        <time>2011-02-17T20:24:54Z</time>
      </trkpt>
      <trkpt lat="43.52573" lon="5.54262">
        <ele>292</ele>
        <time>2011-02-17T20:24:54Z</time>
      </trkpt>
      <trkpt lat="43.52584" lon="5.54162">
        <ele>296</ele>
        <time>2011-02-17T20:24:54Z</time>
      </trkpt>
      <trkpt lat="43.52569" lon="5.54112">
        <ele>297</ele>
        <time>2011-02-17T20:24:54Z</time>
      </trkpt>
      <trkpt lat="43.52584" lon="5.54052">
        <ele>307</ele>
        <time>2011-02-17T20:24:54Z</time>
      </trkpt>
      <trkpt lat="43.52588" lon="5.5402">
        <ele>309</ele>
        <time>2011-02-17T20:24:54Z</time>
      </trkpt>
      <trkpt lat="43.52586" lon="5.53887">
        <ele>324</ele>
        <time>2011-02-17T20:24:54Z</time>
      </trkpt>
      <trkpt lat="43.52579" lon="5.53829">
        <ele>324</ele>
        <time>2011-02-17T20:24:54Z</time>
      </trkpt>
      <trkpt lat="43.52573" lon="5.53805">
        <ele>321</ele>
        <time>2011-02-17T20:24:54Z</time>
      </trkpt>
      <trkpt lat="43.5256" lon="5.5376">
        <ele>324</ele>
        <time>2011-02-17T20:24:54Z</time>
      </trkpt>
      <trkpt lat="43.52554" lon="5.53735">
        <ele>321</ele>
        <time>2011-02-17T20:24:54Z</time>
      </trkpt>
      <trkpt lat="43.52554" lon="5.53705">
        <ele>316</ele>
        <time>2011-02-17T20:24:54Z</time>
      </trkpt>
      <trkpt lat="43.52534" lon="5.53732">
        <ele>314</ele>
        <time>2011-02-17T20:24:54Z</time>
      </trkpt>
      <trkpt lat="43.52524" lon="5.5375">
        <ele>310</ele>
        <time>2011-02-17T20:24:54Z</time>
      </trkpt>
      <trkpt lat="43.525" lon="5.53745">
        <ele>304</ele>
        <time>2011-02-17T20:24:54Z</time>
      </trkpt>
      <trkpt lat="43.52511" lon="5.53672">
        <ele>298</ele>
        <time>2011-02-17T20:24:54Z</time>
      </trkpt>
      <trkpt lat="43.52515" lon="5.53655">
        <ele>300</ele>
        <time>2011-02-17T20:24:54Z</time>
      </trkpt>
      <trkpt lat="43.52517" lon="5.53617">
        <ele>297</ele>
        <time>2011-02-17T20:24:54Z</time>
      </trkpt>
      <trkpt lat="43.52491" lon="5.53509">
        <ele>289</ele>
        <time>2011-02-17T20:24:54Z</time>
      </trkpt>
      <trkpt lat="43.52498" lon="5.53344">
        <ele>275</ele>
        <time>2011-02-17T20:24:54Z</time>
      </trkpt>
      <trkpt lat="43.52496" lon="5.53308">
        <ele>274</ele>
        <time>2011-02-17T20:24:54Z</time>
      </trkpt>
      <trkpt lat="43.52451" lon="5.53132">
        <ele>262</ele>
        <time>2011-02-17T20:24:54Z</time>
      </trkpt>
      <trkpt lat="43.5244" lon="5.53005">
        <ele>252</ele>
        <time>2011-02-17T20:24:54Z</time>
      </trkpt>
      <trkpt lat="43.52427" lon="5.52911">
        <ele>253</ele>
        <time>2011-02-17T20:24:54Z</time>
      </trkpt>
      <trkpt lat="43.52438" lon="5.52853">
        <ele>252</ele>
        <time>2011-02-17T20:24:54Z</time>
      </trkpt>
      <trkpt lat="43.52438" lon="5.52713">
        <ele>272</ele>
        <time>2011-02-17T20:24:54Z</time>
      </trkpt>
      <trkpt lat="43.52438" lon="5.52711">
        <ele>270</ele>
        <time>2011-02-17T20:24:54Z</time>
      </trkpt>
      <trkpt lat="43.5244" lon="5.52698">
        <ele>269</ele>
        <time>2011-02-17T20:24:54Z</time>
      </trkpt>
      <trkpt lat="43.52461" lon="5.52647">
        <ele>266</ele>
        <time>2011-02-17T20:24:54Z</time>
      </trkpt>
      <trkpt lat="43.52491" lon="5.52595">
        <ele>267</ele>
        <time>2011-02-17T20:24:54Z</time>
      </trkpt>
      <trkpt lat="43.52554" lon="5.524">
        <ele>273</ele>
        <time>2011-02-17T20:24:54Z</time>
      </trkpt>
      <trkpt lat="43.5273" lon="5.5237">
        <ele>292</ele>
        <time>2011-02-17T20:24:54Z</time>
      </trkpt>
      <trkpt lat="43.5276" lon="5.524">
        <ele>296</ele>
        <time>2011-02-17T20:24:54Z</time>
      </trkpt>
      <trkpt lat="43.52813" lon="5.52449">
        <ele>307</ele>
        <time>2011-02-17T20:24:54Z</time>
      </trkpt>
      <trkpt lat="43.52826" lon="5.52419">
        <ele>308</ele>
        <time>2011-02-17T20:24:54Z</time>
      </trkpt>
      <trkpt lat="43.528" lon="5.52372">
        <ele>312</ele>
        <time>2011-02-17T20:24:54Z</time>
      </trkpt>
      <trkpt lat="43.52807" lon="5.52325">
        <ele>314</ele>
        <time>2011-02-17T20:24:54Z</time>
      </trkpt>
      <trkpt lat="43.52839" lon="5.52316">
        <ele>310</ele>
        <time>2011-02-17T20:24:54Z</time>
      </trkpt>
      <trkpt lat="43.52882" lon="5.5234">
        <ele>302</ele>
        <time>2011-02-17T20:24:54Z</time>
      </trkpt>
      <trkpt lat="43.52927" lon="5.52338">
        <ele>299</ele>
        <time>2011-02-17T20:24:54Z</time>
      </trkpt>
      <trkpt lat="43.52987" lon="5.52338">
        <ele>290</ele>
        <time>2011-02-17T20:24:54Z</time>
      </trkpt>
      <trkpt lat="43.53017" lon="5.52336">
        <ele>289</ele>
        <time>2011-02-17T20:24:54Z</time>
      </trkpt>
      <trkpt lat="43.53036" lon="5.52333">
        <ele>290</ele>
        <time>2011-02-17T20:24:54Z</time>
      </trkpt>
      <trkpt lat="43.53075" lon="5.52331">
        <ele>287</ele>
        <time>2011-02-17T20:24:54Z</time>
      </trkpt>
      <trkpt lat="43.53152" lon="5.52353">
        <ele>281</ele>
        <time>2011-02-17T20:24:54Z</time>
      </trkpt>
      <trkpt lat="43.53197" lon="5.52342">
        <ele>280</ele>
        <time>2011-02-17T20:24:54Z</time>
      </trkpt>
      <trkpt lat="43.53242" lon="5.52312">
        <ele>273</ele>
        <time>2011-02-17T20:24:54Z</time>
      </trkpt>
      <trkpt lat="43.53294" lon="5.52241">
        <ele>268</ele>
        <time>2011-02-17T20:24:54Z</time>
      </trkpt>
      <trkpt lat="43.533" lon="5.52181">
        <ele>264</ele>
        <time>2011-02-17T20:24:54Z</time>
      </trkpt>
      <trkpt lat="43.53313" lon="5.52145">
        <ele>256</ele>
        <time>2011-02-17T20:24:54Z</time>
      </trkpt>
      <trkpt lat="43.53309" lon="5.52127">
        <ele>253</ele>
        <time>2011-02-17T20:24:54Z</time>
      </trkpt>
      <trkpt lat="43.53292" lon="5.52123">
        <ele>251</ele>
        <time>2011-02-17T20:24:54Z</time>
      </trkpt>
      <trkpt lat="43.53287" lon="5.52123">
        <ele>248</ele>
        <time>2011-02-17T20:24:54Z</time>
      </trkpt>
      <trkpt lat="43.53279" lon="5.52123">
        <ele>247</ele>
        <time>2011-02-17T20:24:54Z</time>
      </trkpt>
      <trkpt lat="43.53283" lon="5.52102">
        <ele>242</ele>
        <time>2011-02-17T20:24:54Z</time>
      </trkpt>
      <trkpt lat="43.53294" lon="5.52078">
        <ele>241</ele>
        <time>2011-02-17T20:24:54Z</time>
      </trkpt>
      <trkpt lat="43.53294" lon="5.52065">
        <ele>244</ele>
        <time>2011-02-17T20:24:54Z</time>
      </trkpt>
      <trkpt lat="43.53307" lon="5.52037">
        <ele>241</ele>
        <time>2011-02-17T20:24:54Z</time>
      </trkpt>
      <trkpt lat="43.53307" lon="5.52001">
        <ele>249</ele>
        <time>2011-02-17T20:24:54Z</time>
      </trkpt>
      <trkpt lat="43.5332" lon="5.51988">
        <ele>246</ele>
        <time>2011-02-17T20:24:54Z</time>
      </trkpt>
      <trkpt lat="43.5332" lon="5.51966">
        <ele>246</ele>
        <time>2011-02-17T20:24:54Z</time>
      </trkpt>
      <trkpt lat="43.53315" lon="5.51936">
        <ele>241</ele>
        <time>2011-02-17T20:24:54Z</time>
      </trkpt>
      <trkpt lat="43.5332" lon="5.51921">
        <ele>239</ele>
        <time>2011-02-17T20:24:54Z</time>
      </trkpt>
      <trkpt lat="43.53333" lon="5.51954">
        <ele>242</ele>
        <time>2011-02-17T20:24:54Z</time>
      </trkpt>
      <trkpt lat="43.53315" lon="5.51913">
        <ele>236</ele>
        <time>2011-02-17T20:24:54Z</time>
      </trkpt>
      <trkpt lat="43.53313" lon="5.51878">
        <ele>240</ele>
        <time>2011-02-17T20:24:54Z</time>
      </trkpt>
      <trkpt lat="43.53307" lon="5.51853">
        <ele>239</ele>
        <time>2011-02-17T20:24:54Z</time>
      </trkpt>
      <trkpt lat="43.5329" lon="5.51829">
        <ele>239</ele>
        <time>2011-02-17T20:24:54Z</time>
      </trkpt>
      <trkpt lat="43.53277" lon="5.51816">
        <ele>243</ele>
        <time>2011-02-17T20:24:54Z</time>
      </trkpt>
      <trkpt lat="43.5326" lon="5.51795">
        <ele>242</ele>
        <time>2011-02-17T20:24:54Z</time>
      </trkpt>
      <trkpt lat="43.53264" lon="5.51745">
        <ele>248</ele>
        <time>2011-02-17T20:24:54Z</time>
      </trkpt>
      <trkpt lat="43.53264" lon="5.51707">
        <ele>247</ele>
        <time>2011-02-17T20:24:54Z</time>
      </trkpt>
      <trkpt lat="43.5327" lon="5.5167">
        <ele>246</ele>
        <time>2011-02-17T20:24:54Z</time>
      </trkpt>
      <trkpt lat="43.53249" lon="5.51623">
        <ele>248</ele>
        <time>2011-02-17T20:24:54Z</time>
      </trkpt>
      <trkpt lat="43.53208" lon="5.516">
        <ele>248</ele>
        <time>2011-02-17T20:24:54Z</time>
      </trkpt>
      <trkpt lat="43.53182" lon="5.51591">
        <ele>253</ele>
        <time>2011-02-17T20:24:54Z</time>
      </trkpt>
      <trkpt lat="43.53142" lon="5.51587">
        <ele>249</ele>
        <time>2011-02-17T20:24:54Z</time>
      </trkpt>
      <trkpt lat="43.53122" lon="5.51582">
        <ele>251</ele>
        <time>2011-02-17T20:24:54Z</time>
      </trkpt>
      <trkpt lat="43.53099" lon="5.51569">
        <ele>253</ele>
        <time>2011-02-17T20:24:54Z</time>
      </trkpt>
      <trkpt lat="43.53086" lon="5.51572">
        <ele>252</ele>
        <time>2011-02-17T20:24:54Z</time>
      </trkpt>
      <trkpt lat="43.53075" lon="5.51567">
        <ele>248</ele>
        <time>2011-02-17T20:24:54Z</time>
      </trkpt>
      <trkpt lat="43.53056" lon="5.51546">
        <ele>257</ele>
        <time>2011-02-17T20:24:54Z</time>
      </trkpt>
      <trkpt lat="43.53019" lon="5.51527">
        <ele>260</ele>
        <time>2011-02-17T20:24:54Z</time>
      </trkpt>
      <trkpt lat="43.52998" lon="5.51537">
        <ele>264</ele>
        <time>2011-02-17T20:24:54Z</time>
      </trkpt>
      <trkpt lat="43.52974" lon="5.51565">
        <ele>264</ele>
        <time>2011-02-17T20:24:54Z</time>
      </trkpt>
      <trkpt lat="43.52951" lon="5.51593">
        <ele>261</ele>
        <time>2011-02-17T20:24:54Z</time>
      </trkpt>
      <trkpt lat="43.52933" lon="5.51569">
        <ele>260</ele>
        <time>2011-02-17T20:24:54Z</time>
      </trkpt>
      <trkpt lat="43.52936" lon="5.51546">
        <ele>258</ele>
        <time>2011-02-17T20:24:54Z</time>
      </trkpt>
      <trkpt lat="43.52948" lon="5.51512">
        <ele>261</ele>
        <time>2011-02-17T20:24:54Z</time>
      </trkpt>
      <trkpt lat="43.52951" lon="5.51484">
        <ele>266</ele>
        <time>2011-02-17T20:24:54Z</time>
      </trkpt>
      <trkpt lat="43.52955" lon="5.51445">
        <ele>264</ele>
        <time>2011-02-17T20:24:54Z</time>
      </trkpt>
      <trkpt lat="43.52974" lon="5.51419">
        <ele>268</ele>
        <time>2011-02-17T20:24:54Z</time>
      </trkpt>
      <trkpt lat="43.52972" lon="5.514">
        <ele>273</ele>
        <time>2011-02-17T20:24:54Z</time>
      </trkpt>
      <trkpt lat="43.52916" lon="5.51406">
        <ele>276</ele>
        <time>2011-02-17T20:24:54Z</time>
      </trkpt>
      <trkpt lat="43.52745" lon="5.51477">
        <ele>296</ele>
        <time>2011-02-17T20:24:54Z</time>
      </trkpt>
      <trkpt lat="43.52723" lon="5.51516">
        <ele>302</ele>
        <time>2011-02-17T20:24:54Z</time>
      </trkpt>
      <trkpt lat="43.52727" lon="5.5155">
        <ele>306</ele>
        <time>2011-02-17T20:24:54Z</time>
      </trkpt>
      <trkpt lat="43.52732" lon="5.51638">
        <ele>312</ele>
        <time>2011-02-17T20:24:54Z</time>
      </trkpt>
      <trkpt lat="43.52734" lon="5.51666">
        <ele>317</ele>
        <time>2011-02-17T20:24:54Z</time>
      </trkpt>
      <trkpt lat="43.52712" lon="5.51801">
        <ele>321</ele>
        <time>2011-02-17T20:24:54Z</time>
      </trkpt>
      <trkpt lat="43.52717" lon="5.51838">
        <ele>324</ele>
        <time>2011-02-17T20:24:54Z</time>
      </trkpt>
      <trkpt lat="43.52691" lon="5.51908">
        <ele>325</ele>
        <time>2011-02-17T20:24:54Z</time>
      </trkpt>
      <trkpt lat="43.527" lon="5.52065">
        <ele>326</ele>
        <time>2011-02-17T20:24:54Z</time>
      </trkpt>
      <trkpt lat="43.52721" lon="5.52217">
        <ele>327</ele>
        <time>2011-02-17T20:24:54Z</time>
      </trkpt>
      <trkpt lat="43.52725" lon="5.52233">
        <ele>325</ele>
        <time>2011-02-17T20:24:54Z</time>
      </trkpt>
      <trkpt lat="43.52755" lon="5.5228">
        <ele>317</ele>
        <time>2011-02-17T20:24:54Z</time>
      </trkpt>
      <trkpt lat="43.52794" lon="5.52327">
        <ele>313</ele>
        <time>2011-02-17T20:24:54Z</time>
      </trkpt>
      <trkpt lat="43.52826" lon="5.52408">
        <ele>311</ele>
        <time>2011-02-17T20:24:54Z</time>
      </trkpt>
      <trkpt lat="43.52828" lon="5.52456">
        <ele>311</ele>
        <time>2011-02-17T20:24:54Z</time>
      </trkpt>
      <trkpt lat="43.52841" lon="5.52471">
        <ele>317</ele>
        <time>2011-02-17T20:24:54Z</time>
      </trkpt>
      <trkpt lat="43.52854" lon="5.52481">
        <ele>319</ele>
        <time>2011-02-17T20:24:54Z</time>
      </trkpt>
      <trkpt lat="43.5289" lon="5.52529">
        <ele>316</ele>
        <time>2011-02-17T20:24:54Z</time>
      </trkpt>
      <trkpt lat="43.52923" lon="5.5258">
        <ele>322</ele>
        <time>2011-02-17T20:24:54Z</time>
      </trkpt>
      <trkpt lat="43.52985" lon="5.52614">
        <ele>331</ele>
        <time>2011-02-17T20:24:54Z</time>
      </trkpt>
      <trkpt lat="43.52998" lon="5.5264">
        <ele>333</ele>
        <time>2011-02-17T20:24:54Z</time>
      </trkpt>
      <trkpt lat="43.52976" lon="5.52687">
        <ele>345</ele>
        <time>2011-02-17T20:24:54Z</time>
      </trkpt>
      <trkpt lat="43.52953" lon="5.52747">
        <ele>354</ele>
        <time>2011-02-17T20:24:54Z</time>
      </trkpt>
      <trkpt lat="43.52946" lon="5.5276">
        <ele>358</ele>
        <time>2011-02-17T20:24:54Z</time>
      </trkpt>
      <trkpt lat="43.52959" lon="5.52782">
        <ele>361</ele>
        <time>2011-02-17T20:24:54Z</time>
      </trkpt>
      <trkpt lat="43.52978" lon="5.52805">
        <ele>361</ele>
        <time>2011-02-17T20:24:54Z</time>
      </trkpt>
      <trkpt lat="43.53002" lon="5.52827">
        <ele>363</ele>
        <time>2011-02-17T20:24:54Z</time>
      </trkpt>
      <trkpt lat="43.53049" lon="5.52881">
        <ele>362</ele>
        <time>2011-02-17T20:24:54Z</time>
      </trkpt>
      <trkpt lat="43.53094" lon="5.52964">
        <ele>358</ele>
        <time>2011-02-17T20:24:54Z</time>
      </trkpt>
      <trkpt lat="43.53129" lon="5.53076">
        <ele>351</ele>
        <time>2011-02-17T20:24:54Z</time>
      </trkpt>
      <trkpt lat="43.53133" lon="5.53089">
        <ele>348</ele>
        <time>2011-02-17T20:24:54Z</time>
      </trkpt>
      <trkpt lat="43.53182" lon="5.53149">
        <ele>349</ele>
        <time>2011-02-17T20:24:54Z</time>
      </trkpt>
      <trkpt lat="43.53307" lon="5.5322">
        <ele>368</ele>
        <time>2011-02-17T20:24:54Z</time>
      </trkpt>
      <trkpt lat="43.53352" lon="5.53252">
        <ele>368</ele>
        <time>2011-02-17T20:24:54Z</time>
      </trkpt>
      <trkpt lat="43.53365" lon="5.53258">
        <ele>367</ele>
        <time>2011-02-17T20:24:54Z</time>
      </trkpt>
      <trkpt lat="43.53401" lon="5.53297">
        <ele>362</ele>
        <time>2011-02-17T20:24:54Z</time>
      </trkpt>
      <trkpt lat="43.53455" lon="5.53346">
        <ele>363</ele>
        <time>2011-02-17T20:24:54Z</time>
      </trkpt>
      <trkpt lat="43.53472" lon="5.53361">
        <ele>367</ele>
        <time>2011-02-17T20:24:54Z</time>
      </trkpt>
      <trkpt lat="43.53489" lon="5.53385">
        <ele>369</ele>
        <time>2011-02-17T20:24:54Z</time>
      </trkpt>
      <trkpt lat="43.53506" lon="5.53436">
        <ele>373</ele>
        <time>2011-02-17T20:24:54Z</time>
      </trkpt>
      <trkpt lat="43.53508" lon="5.53516">
        <ele>373</ele>
        <time>2011-02-17T20:24:54Z</time>
      </trkpt>
      <trkpt lat="43.53528" lon="5.53565">
        <ele>370</ele>
        <time>2011-02-17T20:24:54Z</time>
      </trkpt>
      <trkpt lat="43.53554" lon="5.53593">
        <ele>370</ele>
        <time>2011-02-17T20:24:54Z</time>
      </trkpt>
      <trkpt lat="43.53577" lon="5.53606">
        <ele>370</ele>
        <time>2011-02-17T20:24:54Z</time>
      </trkpt>
      <trkpt lat="43.53644" lon="5.53593">
        <ele>369</ele>
        <time>2011-02-17T20:24:54Z</time>
      </trkpt>
      <trkpt lat="43.53738" lon="5.53518">
        <ele>366</ele>
        <time>2011-02-17T20:24:54Z</time>
      </trkpt>
      <trkpt lat="43.53781" lon="5.53537">
        <ele>367</ele>
        <time>2011-02-17T20:24:54Z</time>
      </trkpt>
      <trkpt lat="43.53815" lon="5.53571">
        <ele>364</ele>
        <time>2011-02-17T20:24:54Z</time>
      </trkpt>
      <trkpt lat="43.53828" lon="5.53597">
        <ele>365</ele>
        <time>2011-02-17T20:24:54Z</time>
      </trkpt>
      <trkpt lat="43.53845" lon="5.53593">
        <ele>361</ele>
        <time>2011-02-17T20:24:54Z</time>
      </trkpt>
      <trkpt lat="43.53811" lon="5.53627">
        <ele>367</ele>
        <time>2011-02-17T20:24:54Z</time>
      </trkpt>
      <trkpt lat="43.53835" lon="5.53677">
        <ele>368</ele>
        <time>2011-02-17T20:24:54Z</time>
      </trkpt>
      <trkpt lat="43.53848" lon="5.53752">
        <ele>371</ele>
        <time>2011-02-17T20:24:54Z</time>
      </trkpt>
      <trkpt lat="43.53811" lon="5.53788">
        <ele>374</ele>
        <time>2011-02-17T20:24:54Z</time>
      </trkpt>
      <trkpt lat="43.53766" lon="5.53906">
        <ele>374</ele>
        <time>2011-02-17T20:24:54Z</time>
      </trkpt>
      <trkpt lat="43.53674" lon="5.53904">
        <ele>378</ele>
        <time>2011-02-17T20:24:54Z</time>
      </trkpt>
      <trkpt lat="43.53618" lon="5.53902">
        <ele>377</ele>
        <time>2011-02-17T20:24:54Z</time>
      </trkpt>
      <trkpt lat="43.5353" lon="5.5393">
        <ele>376</ele>
        <time>2011-02-17T20:24:54Z</time>
      </trkpt>
      <trkpt lat="43.53476" lon="5.53962">
        <ele>376</ele>
        <time>2011-02-17T20:24:54Z</time>
      </trkpt>
      <trkpt lat="43.5344" lon="5.54024">
        <ele>378</ele>
        <time>2011-02-17T20:24:54Z</time>
      </trkpt>
      <trkpt lat="43.53433" lon="5.54039">
        <ele>379</ele>
        <time>2011-02-17T20:24:54Z</time>
      </trkpt>
      <trkpt lat="43.53371" lon="5.54078">
        <ele>371</ele>
        <time>2011-02-17T20:24:54Z</time>
      </trkpt>
      <trkpt lat="43.53348" lon="5.54116">
        <ele>370</ele>
        <time>2011-02-17T20:24:54Z</time>
      </trkpt>
      <trkpt lat="43.53352" lon="5.54162">
        <ele>366</ele>
        <time>2011-02-17T20:24:54Z</time>
      </trkpt>
      <trkpt lat="43.53337" lon="5.54192">
        <ele>360</ele>
        <time>2011-02-17T20:24:54Z</time>
      </trkpt>
      <trkpt lat="43.53296" lon="5.54192">
        <ele>358</ele>
        <time>2011-02-17T20:24:54Z</time>
      </trkpt>
      <trkpt lat="43.53268" lon="5.54183">
        <ele>364</ele>
        <time>2011-02-17T20:24:54Z</time>
      </trkpt>
      <trkpt lat="43.53197" lon="5.54144">
        <ele>371</ele>
        <time>2011-02-17T20:24:54Z</time>
      </trkpt>
      <trkpt lat="43.53165" lon="5.54151">
        <ele>374</ele>
        <time>2011-02-17T20:24:54Z</time>
      </trkpt>
      <trkpt lat="43.53137" lon="5.54183">
        <ele>372</ele>
        <time>2011-02-17T20:24:54Z</time>
      </trkpt>
      <trkpt lat="43.53116" lon="5.54286">
        <ele>363</ele>
        <time>2011-02-17T20:24:54Z</time>
      </trkpt>
      <trkpt lat="43.53112" lon="5.5431">
        <ele>359</ele>
        <time>2011-02-17T20:24:54Z</time>
      </trkpt>
      <trkpt lat="43.53103" lon="5.54413">
        <ele>352</ele>
        <time>2011-02-17T20:24:54Z</time>
      </trkpt>
      <trkpt lat="43.53107" lon="5.54526">
        <ele>351</ele>
        <time>2011-02-17T20:24:54Z</time>
      </trkpt>
      <trkpt lat="43.53124" lon="5.54507">
        <ele>347</ele>
        <time>2011-02-17T20:24:54Z</time>
      </trkpt>
      <trkpt lat="43.53133" lon="5.54481">
        <ele>346</ele>
        <time>2011-02-17T20:24:54Z</time>
      </trkpt>
      <trkpt lat="43.53167" lon="5.54518">
        <ele>342</ele>
        <time>2011-02-17T20:24:54Z</time>
      </trkpt>
      <trkpt lat="43.5318" lon="5.54544">
        <ele>339</ele>
        <time>2011-02-17T20:24:54Z</time>
      </trkpt>
      <trkpt lat="43.53187" lon="5.54687">
        <ele>327</ele>
        <time>2011-02-17T20:24:54Z</time>
      </trkpt>
      <trkpt lat="43.53204" lon="5.54739">
        <ele>323</ele>
        <time>2011-02-17T20:24:54Z</time>
      </trkpt>
      <trkpt lat="43.53202" lon="5.54784">
        <ele>313</ele>
        <time>2011-02-17T20:24:54Z</time>
      </trkpt>
      <trkpt lat="43.53167" lon="5.54803">
        <ele>305</ele>
        <time>2011-02-17T20:24:54Z</time>
      </trkpt>
      <trkpt lat="43.53112" lon="5.5482">
        <ele>291</ele>
        <time>2011-02-17T20:24:54Z</time>
      </trkpt>
      <trkpt lat="43.5306" lon="5.54835">
        <ele>286</ele>
        <time>2011-02-17T20:24:54Z</time>
      </trkpt>
      <trkpt lat="43.53009" lon="5.54891">
        <ele>277</ele>
        <time>2011-02-17T20:24:54Z</time>
      </trkpt>
      <trkpt lat="43.52978" lon="5.54943">
        <ele>276</ele>
        <time>2011-02-17T20:24:54Z</time>
      </trkpt>
      <trkpt lat="43.52929" lon="5.54962">
        <ele>274</ele>
        <time>2011-02-17T20:24:54Z</time>
      </trkpt>
      <trkpt lat="43.52912" lon="5.54943">
        <ele>273</ele>
        <time>2011-02-17T20:24:54Z</time>
      </trkpt>
      <trkpt lat="43.52873" lon="5.54902">
        <ele>274</ele>
        <time>2011-02-17T20:24:54Z</time>
      </trkpt>
      <trkpt lat="43.52807" lon="5.54807">
        <ele>268</ele>
        <time>2011-02-17T20:24:54Z</time>
      </trkpt>
      <trkpt lat="43.52764" lon="5.54786">
        <ele>267</ele>
        <time>2011-02-17T20:24:54Z</time>
      </trkpt>
      <trkpt lat="43.5273" lon="5.54792">
        <ele>267</ele>
        <time>2011-02-17T20:24:54Z</time>
      </trkpt>
      <trkpt lat="43.52697" lon="5.54827">
        <ele>266</ele>
        <time>2011-02-17T20:24:54Z</time>
      </trkpt>
      <trkpt lat="43.52639" lon="5.54818">
        <ele>268</ele>
        <time>2011-02-17T20:24:54Z</time>
      </trkpt>
      <trkpt lat="43.52569" lon="5.54784">
        <ele>266</ele>
        <time>2011-02-17T20:24:54Z</time>
      </trkpt>
      <trkpt lat="43.52564" lon="5.54767">
        <ele>262</ele>
        <time>2011-02-17T20:24:54Z</time>
      </trkpt>
      <trkpt lat="43.52551" lon="5.54752">
        <ele>261</ele>
        <time>2011-02-17T20:24:54Z</time>
      </trkpt>
      <trkpt lat="43.52541" lon="5.54726">
        <ele>264</ele>
        <time>2011-02-17T20:24:54Z</time>
      </trkpt>
      <trkpt lat="43.52468" lon="5.54709">
        <ele>256</ele>
        <time>2011-02-17T20:24:54Z</time>
      </trkpt>
      <trkpt lat="43.52427" lon="5.54739">
        <ele>258</ele>
        <time>2011-02-17T20:24:54Z</time>
      </trkpt>
      <trkpt lat="43.52425" lon="5.54739">
        <ele>254</ele>
        <time>2011-02-17T20:24:54Z</time>
      </trkpt>
      <trkpt lat="43.52425" lon="5.54739">
        <ele>260</ele>
        <time>2011-02-17T20:24:54Z</time>
      </trkpt>
    </trkseg>
  </trk>
</gpx>